Notices

What's New in latest Release from April 7th, 2021:

- Updated Glossary, including Speed of Maximum Gust, and Total Hourly Precipitation

- Updated national and regional climate services offices contacts and prices information

- Addition of station inventory lists for 1981-2010, 1971-2000, and 1961-1990 Normals.

If you haven't already, please take our survey and provide feedback about our website: https://eccc.sondage-survey.ca/f/LanguageSelection.aspx?s=442ca660-fcf1-47c0-95a9-59707d6fd709

Hourly Data Report for September 15, 2017

TORONTO CITY
ONTARIO

43°40'00.000" N
79°24'00.000" W
112.50 m
6158355
71508
XTO

Download Data

Hourly Data (September 2017)
Hourly Data Report for September 15, 2017
TIME
LST
Temp Definition
°C
Dew Point Definition
°C
Rel Hum Definition
%
Precip. Amount Definition
mm

Wind Dir Definition
10's deg

Wind Spd Definition
km/h
Visibility Definition
km
Stn Press Definition
kPa
Hmdx Definition


Wind Chill Definition


Weather Definition


00:00 20.6 15.9 75 0.0 LegendMM LegendMM   100.14 25   LegendNANA
01:00 20.7 15.8 74 0.0 LegendMM LegendMM   100.18 25   LegendNANA
02:00 19.4 15.8 80 0.0 LegendMM LegendMM   100.20     LegendNANA
03:00 19.0 15.3 79 0.0 LegendMM LegendMM   100.21     LegendNANA
04:00 19.0 16.0 83 0.0 LegendMM LegendMM   100.26     LegendNANA
05:00 18.3 15.4 83 0.0 LegendMM LegendMM   100.31     LegendNANA
06:00 18.0 15.5 85 0.0 LegendMM LegendMM   100.41     LegendNANA
07:00 19.1 16.0 82 0.0 LegendMM LegendMM   100.45     LegendNANA
08:00 21.0 15.6 72 0.0 LegendMM LegendMM   100.51 25   LegendNANA
09:00 22.3 15.0 63 0.0 LegendMM LegendMM   100.57 26   LegendNANA
10:00 23.5 14.8 58 0.0 LegendMM LegendMM   100.57 27   LegendNANA
11:00 23.3 15.2 60 0.0 LegendMM LegendMM   100.59 27   LegendNANA
12:00 23.9 14.7 56 0.0 LegendMM LegendMM   100.57 28   LegendNANA
13:00 24.9 15.4 56 0.0 LegendMM LegendMM   100.56 29   LegendNANA
14:00 24.5 14.7 54 0.0 LegendMM LegendMM   100.55 28   LegendNANA
15:00 25.0 15.4 55 0.0 LegendMM LegendMM   100.52 29   LegendNANA
16:00 25.0 14.8 53 0.0 LegendMM LegendMM   100.52 29   LegendNANA
17:00 24.7 14.5 53 0.0 LegendMM LegendMM   100.54 28   LegendNANA
18:00 23.9 15.0 58 0.0 LegendMM LegendMM   100.56 28   LegendNANA
19:00 23.2 15.2 61 0.0 LegendMM LegendMM   100.60 27   LegendNANA
20:00 22.1 16.0 68 0.0 LegendMM LegendMM   100.64 27   LegendNANA
21:00 21.4 16.7 75 0.0 LegendMM LegendMM   100.66 26   LegendNANA
22:00 20.4 16.3 77 0.0 LegendMM LegendMM   100.69 25   LegendNANA
23:00 19.8 16.6 82 0.0 LegendMM LegendMM   100.71     LegendNANA

Notes on Data Quality.

Legend

  • E = Estimated
  • M = Missing
  • NA = Not Available*
  • [empty] = Indicates an unobserved value
Date modified: